Printer-friendly version

IAU Minor Planet Center

Minor Planet Center

MPEC 2001-C38: 2001 CK32

The following Minor Planet Electronic Circular may be linked-to from your own Web pages, but must not otherwise be redistributed electronically.


Read MPEC 2001-C37 Read MPEC 2001-C39


M.P.E.C. 2001-C38                                Issued 2001 Feb. 15, 18:42 UT

     The Minor Planet Electronic Circulars contain information on unusual
         minor planets and routine data on comets.  They are published
   on behalf of Commission 20 of the International Astronomical Union by the
          Minor Planet Center, Smithsonian Astrophysical Observatory,
                          Cambridge, MA 02138, U.S.A.

             Prepared using the Tamkin Foundation Computer Network

                              MPC@CFA.HARVARD.EDU
          URL http://cfa-www.harvard.edu/iau/mpc.html  ISSN 1523-6714

                                   2001 CK32

Observations:
     K01C32K* C2001 02 13.47491 16 54 52.51 +33 02 23.9          17.2        704
     K01C32K  C2001 02 13.48915 16 54 53.26 +33 04 17.3          17.4        704
     K01C32K  C2001 02 13.50331 16 54 53.95 +33 06 09.6          17.1        704
     K01C32K  C2001 02 13.51765 16 54 54.61 +33 08 03.3          17.0        704
     K01C32K  C2001 02 14.08446 16 55 40.01 +34 21 25.5                      557
     K01C32K  C2001 02 14.08522 16 55 40.03 +34 21 31.3                      557
     K01C32K  C2001 02 14.08601 16 55 40.15 +34 21 37.7                      557
     K01C32K  C2001 02 14.08678 16 55 40.20 +34 21 43.4                      557
     K01C32K  C2001 02 14.08756 16 55 40.17 +34 21 49.6                      557
     K01C32K  C2001 02 14.08833 16 55 40.22 +34 21 56.6                      557
     K01C32K  C2001 02 14.96472 16 56 52.90 +36 16 48.5                      587
     K01C32K  C2001 02 15.05586 16 57 00.58 +36 29 10.2                      557
     K01C32K  C2001 02 15.05632 16 57 00.75 +36 29 15.2          16.4 R      046
     K01C32K  C2001 02 15.05662 16 57 00.63 +36 29 16.9                      557
     K01C32K  C2001 02 15.05715 16 57 00.80 +36 29 22.0                      046
     K01C32K  C2001 02 15.05740 16 57 00.73 +36 29 22.9                      557
     K01C32K  C2001 02 15.05773 16 57 00.85 +36 29 26.8          16.2 R      046
     K01C32K  C2001 02 15.05853 16 57 00.92 +36 29 33.0          16.3 R      046
     K01C32K  C2001 02 15.05910 16 57 00.95 +36 29 37.5                      046
     K01C32K  C2001 02 15.05993 16 57 01.02 +36 29 44.2          16.3 R      046
     K01C32K  C2001 02 15.06682 16 57 01.80 +36 30 42.5                      473
     K01C32K  C2001 02 15.07449 16 57 02.42 +36 31 43.6                      595
     K01C32K  C2001 02 15.07727 16 57 02.59 +36 32 07.3          17.4 V      595
     K01C32K  C2001 02 15.08377 16 57 03.11 +36 33 00.2                      473
     K01C32K  C2001 02 15.08562 16 57 03.26 +36 33 16.0                      595
     K01C32K  C2001 02 15.09454 16 57 03.78 +36 34 28.5                      595
     K01C32K  C2001 02 15.10049 16 57 04.25 +36 35 16.5                      595
     K01C32K  C2001 02 15.12216 16 57 05.78 +36 38 14.2          16.8 R      473
     K01C32K  C2001 02 15.17015 16 57 08.84 +36 44 41.3          16.7        106
     K01C32K  C2001 02 15.18160 16 57 09.55 +36 46 13.5          16.8        106
     K01C32K  C2001 02 15.18943 16 57 09.62 +36 47 13.8                      118
     K01C32K  C2001 02 15.19089 16 57 10.10 +36 47 28.5          16.9        106
     K01C32K  C2001 02 15.19200 16 57 09.77 +36 47 34.6                      118
     K01C32K  C2001 02 15.19378 16 57 09.88 +36 47 48.8          15.8 R      118
     K01C32K  C2001 02 15.36872 16 57 28.27 +37 10 39.8          17.0 R      918
     K01C32K  C2001 02 15.37008 16 57 28.42 +37 10 51.4          16.9 R      918
     K01C32K  C2001 02 15.37219 16 57 28.47 +37 11 08.7          17.1 R      918
     K01C32K  C2001 02 15.37389 16 57 28.71 +37 11 22.5          17.1 R      918
     K01C32K  C2001 02 15.50323 16 57 39.43 +37 29 02.3                      670
     K01C32K  C2001 02 15.54686 16 57 41.41 +37 35 03.7          17.3 V      926
     K01C32K  C2001 02 15.54736 16 57 42.14 +37 35 00.6                      670
     K01C32K  C2001 02 15.54738 16 57 41.43 +37 35 07.9          17.0 V      926
     K01C32K  C2001 02 15.54791 16 57 41.46 +37 35 12.1          17.0 V      926

Observer details:
046 Klet.  Observer M. Tichy.  0.57-m f/5.2 reflector + CCD.
106 Crni Vrh.  Observer J. Skvarc.  0.36-m f/6.7 Schmidt-Cassegrain + CCD.
118 Modra.  Observers A. Galad, P. Koleny.  0.6-m f/5.5 reflector + CCD.
473 Remanzacco.  Observers A. Lepardo, G. Sostero.  0.31-m f/2.8 Baker-Schmidt
    + CCD,
557 Ondrejov.  Observers P. Pravec, L. Sarounova.  0.65-m f/3.6 reflector + CCD.
587 Sormano.  Observers P. Sicoli, P. Ghezzi, L. Pansecchi.  0.5-m
    reflector + CCD.
595 Farra d'Isonzo.  Observers G. Lombardi, E. Pettarin.  0.40-m f/4.5
    reflector + CCD.
670 Camarillo.  Observer J. E. Rogers.  0.30-m f/6.7 Helin Telescope + CCD.
704 Lincoln Laboratory ETS, New Mexico.  Observers M. Blythe, F. Shelly,
    M. Bezpalko, R. Huber, L. Manguso, S. Adams.  Measurers J. Stuart,
    R. Sayer, J. B. Evans, H. Viggh.  1.0-m f/2.15 reflector + CCD.
918 Badlands Observatory, Quinn.  Observer R. Dyvig.  0.66-m f/4.8 reflector
    + CCD.
926 Tenagra II Observatory.  Observers P. R. Holvorcem, C. W. Juels,
    M. Schwartz.  Measurer P. R. Holvorcem.  0.5-m f/10 Ritchey-Chretien + CCD.

Orbital elements:
2001 CK32
Epoch 2001 Jan. 31.0 TT = JDT 2451940.5                 Spahr
M 127.54162              (2000.0)            P               Q
n   1.59712325     Peri.  234.10896     +0.95237388     +0.27406645
a   0.7248427      Node   109.65129     -0.21336729     +0.91214532
e   0.3835562      Incl.    8.16084     -0.21784947     +0.30475975
P   0.62           H   18.7           G   0.15
From 43 observations 2001 Feb. 13-15.

Ephemeris:
2001 CK32                a,e,i = 0.72, 0.38, 8                   q = 0.4468
Date    TT    R. A. (2000) Decl.     Delta      r     Elong.  Phase     V
2001 02 10    16 50.95   +25 43.0    0.110    0.973    79.8    93.8    17.2
2001 02 20    17 05.41   +47 33.3    0.105    0.994    89.6    84.4    16.7
2001 03 02    17 38.69   +68 48.3    0.112    1.002    92.6    81.0    16.8
2001 03 12    20 31.9    +83 59.7    0.130    1.000    89.1    83.5    17.2
2001 03 22    02 57.7    +79 28.2    0.152    0.986    81.8    89.5    17.7
2001 04 01    03 48.7    +70 32.9    0.175    0.961    72.5    97.5    18.3
2001 04 11    03 57.32   +62 49.7    0.198    0.925    61.6   107.5    19.0

Timothy B. Spahr             (C) Copyright 2001 MPC           M.P.E.C. 2001-C38

Read MPEC 2001-C37 Read MPEC 2001-C39


Our Web policy. Index to the CBAT/MPC/ICQ pages.


Valid HTML 4.01!